Regional Weather Roundup
Issued by NWS

Home | Current Version | Previous Version | Graphics & Text | Print | Product List | Glossary On
Versions: 1 2 3 4 5 6 7 8 9 10 11 12 13 14 15 16 17 18 19 20 21 22 23 24 25 26 27 28 29 30 31 32 33 34 35 36 37 38 39 40 41 42 43 44 45 46 47 48 49 50
000
ASUS43 KMKX 161621
RWRWI

WISCONSIN REGIONAL WEATHER ROUNDUP
NATIONAL WEATHER SERVICE MILWAUKEE/SULLIVAN WI
1100 AM CDT TUE SEP 16 2014

NOTE: "FAIR" INDICATES FEW OR NO CLOUDS BELOW 12,000 FEET WITH NO
SIGNIFICANT WEATHER AND/OR OBSTRUCTIONS TO VISIBILITY.

WIZ001-002-006>008-014>016-023>028-161700-
NORTHWEST WISCONSIN

CITY           SKY/WX    TMP DP  RH WIND       PRES   REMARKS
SUPERIOR ARPT  SUNNY     60  44  55 W10G16    30.07F
ASHLAND        SUNNY     60  41  49 SW14G22   30.07F
HAYWARD        SUNNY     58  39  49 SW8G16    30.12F
SIREN          SUNNY     58  40  51 W10G16    30.13S
RICE LAKE      SUNNY     59  38  46 SW9       30.16F
LADYSMITH      SUNNY     59  43  55 SW9       30.15F
EAU CLAIRE     SUNNY     58  42  55 W9        30.16F
MENOMONIE      SUNNY     60  43  53 SW6       30.16F
NEW RICHMOND   SUNNY     60  41  50 W9        30.16S
OSCEOLA        SUNNY     60  44  55 SW5       30.17F
$$

WIZ003>005-009-010-017-018-161700-
NORTH CENTRAL WISCONSIN

CITY           SKY/WX    TMP DP  RH WIND       PRES   REMARKS
WOODRUFF       SUNNY     59  40  49 W13G20    30.10F
RHINELANDER    SUNNY     57  38  48 W16G22    30.12F
EAGLE RIVER    SUNNY     57  35  43 W15G21    30.09F
LAND O LAKES   SUNNY     58  37  46 W10G20    30.09F
PHILLIPS       SUNNY     57  40  52 SW12      30.12F
TOMAHAWK       SUNNY     58  38  47 W9        30.13F
MEDFORD        SUNNY     56  42  59 W9        30.15F
MERRILL        PTSUNNY   58  42  55 W9        30.13F
$$

WIZ029-030-035-036-043>047-161700-
CENTRAL WISCONSIN

CITY           SKY/WX    TMP DP  RH WIND       PRES   REMARKS
WAUSAU         SUNNY     58  40  51 W10       30.14F
MOSINEE        SUNNY     57  45  62 W9        30.17S
MARSHFIELD     SUNNY     59  42  53 W10       30.16F
STEVENS POINT  SUNNY     55  40  56 W6        30.17F
WAUPACA        SUNNY     60  40  47 W6        30.17F
WAUTOMA        SUNNY     60  40  47 W8        30.18F
WISC RAPIDS    SUNNY     58  42  55 W9        30.19F
CAMP DOUGLAS   SUNNY     59  45  58 W10       30.18F
$$

WIZ011>013-019>022-031-037>040-048>050-161700-
NORTHEAST WISCONSIN

CITY           SKY/WX    TMP DP  RH WIND       PRES   REMARKS
ANTIGO         SUNNY     56  39  53 W14       30.14F
STURGEON BAY   SUNNY     57  39  51 W10       30.13F
GREEN BAY      SUNNY     59  42  53 W10       30.16F
MANITOWOC      SUNNY     58  42  55 W10       30.17F
APPLETON       SUNNY     57  39  51 W9        30.17F
CLINTONVILLE   SUNNY     59  41  51 W7        30.15F
OSHKOSH        SUNNY     57  41  55 W8        30.17F
$$

WIZ032>034-041-042-053>061-161700-
SOUTHWEST WISCONSIN

CITY           SKY/WX    TMP DP  RH WIND       PRES   REMARKS
LA CROSSE      SUNNY     58  46  64 S7        30.20F
SPARTA         SUNNY     55  43  62 W3        30.20F
VIROQUA        FAIR      58  43  57 SW8       30.20F
BOSCOBEL       SUNNY     58  47  66 S5        30.22F
PRAIRIE DU CHI SUNNY     54  53  95 CALM      30.21F
PLATTEVILLE    FAIR      58  44  61 CALM      30.23S
$$

WIZ056-057-062-063-064-067-068-161700-
SOUTH CENTRAL WISCONSIN

CITY           SKY/WX    TMP DP  RH WIND       PRES   REMARKS
BARABOO/DELLS  SUNNY     58  40  50 SW8       30.19F
LONE ROCK      SUNNY     60  45  57 W7        30.21F
WATERTOWN      SUNNY     57  44  60 W5        30.20F
MADISON        MOSUNNY   59  40  49 VRB7      30.20F
MIDDLETON      FAIR      59  42  52 NW5       30.21F
MONROE         SUNNY     57  37  47 W8        30.21F
JANESVILLE     NOT AVBL
$$

WIZ051-052-058>065-066-070>072-161700-
SOUTHEAST WISCONSIN

CITY           SKY/WX    TMP DP  RH WIND       PRES   REMARKS
MILWAUKEE      SUNNY     59  38  45 VRB6      30.21S
WAUKESHA       SUNNY     55  39  54 W5        30.21F
MILWAUKEE/TIMM SUNNY     57  37  47 NW5       30.21F
RACINE         SUNNY     59  40  49 NW7       30.22S
BURLINGTON     SUNNY     57  37  46 CALM      30.20F
KENOSHA        SUNNY     60  42  51 VRB5      30.21F
FOND DU LAC    SUNNY     58  40  51 NW8       30.18F
SHEBOYGAN      SUNNY     58  40  51 NW8       30.18F
WEST BEND      SUNNY     55  36  47 W6        30.19F
JUNEAU         SUNNY     56  38  52 W5        30.21F
$$

LSZ147-162-161700-
LAKE SUPERIOR

STATION/POSITION TIME  TEMP    WIND        PRES    WAVE
                       AIR SEA DIR/SP/G            HT/PER
                 (UTC) (F)     (DEG/KT/KT) (MB)    (FT/S)
W MID LAKE BUOY  1550   50 47  240/ 17/ 19 1015.6F   5/ 6
DEVILS ISLAND    1600   53     230/ 21/ 25 1016.7F
PORT WING        1540   59     250/ 10/ 15 1017.9F
SAXON HARBOR     1500   57     220/  7/ 18 1018.3
$$

LMZ867-665-643>646-161700-
LAKE MICHIGAN

STATION/POSITION TIME  TEMP    WIND        PRES    WAVE
                       AIR SEA DIR/SP/G            HT/PER
                 (UTC) (F)     (DEG/KT/KT) (MB)    (FT/S)
N MID LAKE BUOY  1550   53 59  250/ 12/ 14 1019.8F   1/ 3
NORTHPORT PIER   1500   56     300/  5/ 10 1020.0F
KEWAUNEE LAKESHO 1500   54     280/  6/  9 1020.5S
SHEBOYGAN LAKESH 1600   56 49  280/  6/  8 1022.3F
PORT WASHINGTON  1500   59     280/  5/  8 1023.0S
ATWATER BUOY     1600   57     290/  4/  4 1023.5F
MILWAUKEE LAKESH 1600   59      70/  1/  3   N/A
S MID LAKE BUOY  1550   58 64  310/  8/ 10 1022.7R   2/ 5
KENOSHA   LAKESH 1600   56      30/  2/  5 1022.4
$$

TC  - TEMPERATURE IN CELSIUS
VSB - VISIBILITY IN STATUTE MILES
WCI - WIND CHILL INDEX
HX  - HEAT INDEX




USA.gov is the U.S. government's official web portal to all federal, state and local government web resources and services.